Current Version              Previous Version:    01  02  03  04  05  06  07  08  09  10  11  12  13  14  15  16  17  18  19  20  21  22  23  24  25  26  27  28  29  30  
   31  32  33  34  35  36  37  38  39  40  41  42  43  44  45  46  47  48  49  50  51  52  53  54  55  56  57  58  59  60  

[Printable]
363
ASUS44 KFWD 302115
RWRTX
NORTH TEXAS HOURLY WEATHER ROUNDUP
NATIONAL WEATHER SERVICE FORT WORTH TX
400 PM CDT THU OCT 30 2014

NOTE: "FAIR" INDICATES FEW OR NO CLOUDS BELOW 12,000 FEET WITH NO
SIGNIFICANT WEATHER AND/OR OBSTRUCTIONS TO VISIBILITY.

TXZ118-119-302200-
DALLAS/FORT WORTH METROPLEX

CITY           SKY/WX    TMP DP  RH WIND       PRES   REMARKS
DFW AIRPORT    MOSUNNY   77  52  41 SW5       30.06F
DALLAS LOVE    PTSUNNY   79  51  37 VRB3      30.06F
FTW MEACHAM    SUNNY     79  57  46 CALM      30.05F
DAL-EXECUTIVE  MOSUNNY   79  51  37 VRB3      30.06F
FTW-ALLIANCE   PTSUNNY   79  55  43 S7        30.05F
FTW-NAS-JRB    PTSUNNY   82  55  39 S6        30.09F
FTW-SPINKS     MOSUNNY   81  55  41 S7        30.08F
ARLINGTON      SUNNY     79  52  38 VRB3      30.06F
GRAND PRAIRIE  SUNNY     79  54  41 MISG      30.07F
MESQUITE       MOSUNNY   77  48  36 S6        30.07F
LANCASTER      MOSUNNY   76  48  37 CALM      30.07F
$$

TXZ091>094-102>105-117-120-121-131>134-302200-
NORTH CENTRAL TEXAS

CITY           SKY/WX    TMP DP  RH WIND       PRES   REMARKS
SHRMAN/DENISON MOSUNNY   75  54  47 W7        30.09S
GAINESVILLE    PTSUNNY   71  56  58 CALM      30.10F
BOWIE            N/A     70  64  81 CALM      30.08F
BRIDGEPORT     PTSUNNY   78  60  53 CALM      30.08S
DECATUR        MOSUNNY   77  56  48 N5        30.07F
DENTON         LGT RAIN  76  54  46 W3        30.07S
MCKINNEY       CLOUDY    74  49  41 S6        30.07F
GREENVILLE     MOSUNNY   75  45  33 SW6       30.07F
ROCKWALL       PTSUNNY   74  50  42 SW5       30.07S
TERRELL        PTSUNNY   77  50  38 SW6       30.07F
WAXAHACHIE     MOSUNNY   78  53  42 S3        30.08F
CLEBURNE       SUNNY     77  57  50 S6G13     30.08F
GRANBURY       SUNNY     81  59  47 SE5       30.07F
$$

TXZ083>090-098>101-113>116-127>130-139>142-154-155-302200-
WESTERN NORTH TEXAS

CITY           SKY/WX    TMP DP  RH WIND       PRES   REMARKS
WICHITA FALLS  MOSUNNY   79  55  43 N17       30.08F
WF-KICKAPOO    MOSUNNY   79  55  44 N13G21    30.09S
VERNON         SUNNY     82  43  24 N15G21    30.11S
ABILENE        MOSUNNY   80  57  45 CALM      30.07F
ABILENE-DYESS  MOSUNNY   81  58  46 N2        30.06F
BRECKENRIDGE   PTSUNNY   81  59  47 CALM      30.05F HAZE
GRAHAM         MOSUNNY   79  62  55 N7        30.05S
MINERAL WELLS  MOSUNNY   79  59  50 NE5       30.04F
STEPHENVILLE   SUNNY     79  60  52 S6        30.09F
COMANCHE       SUNNY     77  63  61 CALM      30.07F
BROWNWOOD      SUNNY     81  61  50 CALM      30.07F
COLEMAN        MOSUNNY   82  60  47 CALM      30.07F
BRADY          SUNNY     84  55  37 S6        30.06S
$$

TXZ143>147-156>162-174-175-302200-
CENTRAL TEXAS

CITY           SKY/WX    TMP DP  RH WIND       PRES   REMARKS
WACO           MOSUNNY   73  50  44 VRB3      30.07F
WACO-TSTC      MOSUNNY   75  50  41 S5        30.07F
WACO-MCGREGOR  SUNNY     79  52  38 NE8       30.08F
HILLSBORO      SUNNY     77  51  39 SW3       30.07F
CORSICANA      MOSUNNY   77  48  35 CALM      30.08F
MEXIA          SUNNY     75  52  45 S6        30.07F
HEARNE         CLOUDY    77  52  42 CALM      30.07F
CAMERON        MOSUNNY   77  55  45 CALM      30.06F
TEMPLE         PTSUNNY   75  54  46 S3        30.06F
KILLEEN        SUNNY     79  58  49 E3        30.06F
KILLEEN-SKYLRK SUNNY     79  55  44 E6        30.06S
GATESVILLE     SUNNY     79  57  47 CALM      30.08F
HAMILTON       MOSUNNY   80  60  49 S5        30.08S
LAMPASAS       MOSUNNY   81  65  59 SW3       30.05F
$$

TXZ095>097-106>112-122>126-135>138-148>153-164>167-302200-
EAST TEXAS

CITY           SKY/WX    TMP DP  RH WIND       PRES   REMARKS
PARIS          SUNNY     75  43  31 SW8       30.07F
SULPHUR SPRNGS SUNNY     76  43  30 W5        30.09F
MOUNT PLEASANT SUNNY     74  38  27 SW3       30.09F
MINEOLA        SUNNY     75  37  25 SW6       30.08F
TYLER          SUNNY     74  44  34 CALM      30.08S
LONGVIEW       SUNNY     74  42  31 SW5       30.07F
MARSHALL       SUNNY     76  39  26 SW5       30.09F
ATHENS         SUNNY     73  46  38 CALM      30.07S
PALESTINE      SUNNY     75  42  31 CALM      30.08F
JACKSONVILLE   SUNNY     74  42  31 CALM      30.10F
HENDERSON      SUNNY     73  42  32 NW5       30.08F
NACOGDOCHES    SUNNY     73  43  33 CALM      30.08F
LUFKIN         SUNNY     78  43  28 NW5       30.07F
$$

SUPPLEMENTAL OBSERVATIONS (CENTRAL)

CITY           SKY/WX    TMP DP  RH WIND       PRES   REMARKS
LAKE TEXOMA      N/A     73  54  49 W10         N/A
CADDO GRASSLND   N/A     77  50  38 W3          N/A
PAT MAYSE LAKE   N/A     73  46  38 SW3         N/A
GREENVILLE       N/A     75  45  33 SW7         N/A
CEDAR HILL       N/A     81  52  36 S5          N/A
ATHENS           N/A     77  45  31 S5          N/A
PALESTINE        N/A     79  43  27 SW2         N/A
LAKE LIMESTONE   N/A     79  50  36 SW2         N/A
MCGREGOR         N/A     81  54  39 S5          N/A
TEMPLE           N/A     79  55  44 S2          N/A
$$

SUPPLEMENTAL OBSERVATIONS (WEST)

CITY           SKY/WX    TMP DP  RH WIND       PRES   REMARKS
MILLERS CREEK    N/A     79  59  50 N12         N/A
POSSUM KINGDOM   N/A     82  59  44 N5          N/A
LBJ GRASSLAND    N/A     81  59  47 N6          N/A
GRANBURY         N/A     81  59  47 S7          N/A
COMANCHE         N/A     79  63  57 SE1         N/A
HAMBY            N/A     82  57  42 NW3         N/A
IVIE RESERVOIR   N/A     86  55  35 N6          N/A
COLORADO BEND    N/A     79  61  53 SE3         N/A
$$

SUPPLEMENTAL OBSERVATIONS (EAST)

CITY           SKY/WX    TMP DP  RH WIND       PRES   REMARKS
CLARKSVILLE      N/A     79  39  24 W1          N/A
CADDO LAKE       N/A     79  43  27 W3          N/A
GILMER           N/A     75  37  25 SW3         N/A
HENDERSON        N/A     75  39  27 W3          N/A
LUFKIN           N/A     79  45  29 MISG        N/A
N SABINE NF      N/A     75  45  33 MISG        N/A
S SABINE NF      N/A     75  43  31 NE3         N/A
$$

SUPPLEMENTAL OBSERVATIONS ARE A COLLECTION OF AUTOMATED INSTRUMENTS
THAT ARE MAINTAINED BY A VARIETY OF FEDERAL AND STATE AGENCIES.
CERTAIN ELEMENTS...SUCH AS HUMIDITY VALUES AND SUSTAINED WIND
SPEEDS...MAY BE APPROXIMATED.